OCN1AK EDDM-LGKL

Flight info

Callsign OCN1AK
Flight time N/A
Altitude 37000
Route VAVOR3S/26L VAVOR M867 RADIZ DCT VEKEN DCT URAVA DCT ILB DCT RILIM DCT NOSTO UL612 TRL Y115 IPTAG LGKL/17R
Aircraft A320/M-SDE3FGHIRWY/LB1

Departure

Time N/A
Airport Munich Airport (EDDM)

Arrival

Time 2026-05-07 14:25
Airport Kalamata Airport (LGKL)
Time Latitude Longitude Altitude Speed Heading
2026-05-07 13:49 39.57028 19.42573 37062 ft 518 kts 142°
2026-05-07 13:49 39.52729 19.48162 37082 ft 528 kts 141°
2026-05-07 13:50 39.47512 19.55016 37074 ft 539 kts 141°
2026-05-07 13:50 39.42179 19.61976 37077 ft 549 kts 141°
2026-05-07 13:51 39.36762 19.68984 37080 ft 552 kts 141°
2026-05-07 13:51 39.31318 19.75989 37085 ft 553 kts 141°
2026-05-07 13:52 39.25812 19.83070 37065 ft 554 kts 141°
2026-05-07 13:52 39.20359 19.90072 37071 ft 554 kts 141°
2026-05-07 13:53 39.14887 19.97089 37069 ft 555 kts 141°
2026-05-07 13:53 39.09435 20.04061 37066 ft 555 kts 141°
2026-05-07 13:54 39.03950 20.11051 37067 ft 555 kts 141°
2026-05-07 13:54 38.98445 20.18035 37066 ft 556 kts 141°
2026-05-07 13:55 38.92904 20.25071 37065 ft 556 kts 141°
2026-05-07 13:55 38.87456 20.31980 37084 ft 547 kts 141°
2026-05-07 13:55 38.84748 20.35416 37090 ft 536 kts 141°
2026-05-07 13:56 38.82102 20.38770 37089 ft 532 kts 141°
2026-05-07 13:56 38.76843 20.45387 37089 ft 529 kts 141°
2026-05-07 13:57 38.71573 20.51986 37091 ft 529 kts 141°
2026-05-07 13:57 38.66309 20.58577 37087 ft 529 kts 141°
2026-05-07 13:58 38.61016 20.65207 37085 ft 529 kts 141°
2026-05-07 13:58 38.55779 20.71759 37074 ft 529 kts 141°
2026-05-07 13:59 38.50516 20.78329 37034 ft 529 kts 141°
2026-05-07 13:59 38.47876 20.81619 36460 ft 529 kts 141°
2026-05-07 13:59 38.45233 20.84901 35860 ft 528 kts 141°
2026-05-07 13:59 38.42609 20.88155 35402 ft 523 kts 141°
2026-05-07 14:00 38.40011 20.91377 34950 ft 519 kts 141°
2026-05-07 14:00 38.37436 20.94570 34512 ft 515 kts 141°
2026-05-07 14:00 38.34874 20.97745 34086 ft 511 kts 141°
2026-05-07 14:00 38.32337 21.00884 33617 ft 506 kts 141°
2026-05-07 14:01 38.29827 21.03985 33224 ft 500 kts 141°
2026-05-07 14:01 38.27352 21.07040 32855 ft 493 kts 141°
2026-05-07 14:01 38.24907 21.10059 32481 ft 486 kts 141°
2026-05-07 14:01 38.22463 21.13075 32118 ft 480 kts 141°
2026-05-07 14:02 38.20053 21.16047 31752 ft 473 kts 141°
2026-05-07 14:02 38.17674 21.18972 31390 ft 467 kts 141°
2026-05-07 14:02 38.15321 21.21864 31029 ft 460 kts 141°
2026-05-07 14:02 38.13032 21.24673 30677 ft 454 kts 141°
2026-05-07 14:03 38.11504 21.26548 30427 ft 450 kts 141°
2026-05-07 14:03 38.09237 21.29328 30070 ft 444 kts 141°
2026-05-07 14:03 38.07051 21.32000 29435 ft 444 kts 141°
2026-05-07 14:03 38.04826 21.34711 28748 ft 444 kts 141°
2026-05-07 14:04 38.02560 21.37473 28080 ft 445 kts 140°
2026-05-07 14:04 38.00325 21.40202 27424 ft 444 kts 140°
2026-05-07 14:04 37.98097 21.42921 26800 ft 444 kts 140°
2026-05-07 14:04 37.95871 21.45635 26182 ft 443 kts 140°
2026-05-07 14:05 37.93654 21.48337 25569 ft 442 kts 140°
2026-05-07 14:05 37.91443 21.51029 24976 ft 440 kts 140°
2026-05-07 14:05 37.89235 21.53713 24393 ft 438 kts 139°
2026-05-07 14:05 37.87044 21.56370 23827 ft 436 kts 139°
2026-05-07 14:06 37.84860 21.59019 23180 ft 434 kts 139°
2026-05-07 14:06 37.82682 21.61660 22516 ft 433 kts 139°
2026-05-07 14:06 37.80510 21.64288 21865 ft 431 kts 139°
2026-05-07 14:06 37.78349 21.66903 21231 ft 430 kts 139°
2026-05-07 14:07 37.76206 21.69511 20745 ft 425 kts 137°
2026-05-07 14:07 37.74394 21.72454 20303 ft 423 kts 126°
2026-05-07 14:07 37.72805 21.75558 19867 ft 418 kts 125°
2026-05-07 14:07 37.71246 21.78646 19437 ft 414 kts 125°
2026-05-07 14:08 37.69714 21.81698 19013 ft 409 kts 125°
2026-05-07 14:08 37.68159 21.84806 18590 ft 405 kts 125°
2026-05-07 14:08 37.66667 21.87797 18140 ft 402 kts 125°
2026-05-07 14:08 37.65163 21.90807 17663 ft 399 kts 125°
2026-05-07 14:09 37.63689 21.93755 17203 ft 396 kts 125°
2026-05-07 14:09 37.62203 21.96722 16721 ft 393 kts 125°
2026-05-07 14:09 37.60785 21.99558 16273 ft 379 kts 125°
2026-05-07 14:09 37.59407 22.02318 15830 ft 365 kts 125°
2026-05-07 14:10 37.58062 22.05014 15384 ft 353 kts 125°
2026-05-07 14:10 37.56777 22.07594 14937 ft 343 kts 125°
2026-05-07 14:10 37.55525 22.10114 14527 ft 335 kts 125°
2026-05-07 14:10 37.54290 22.12605 14105 ft 336 kts 125°
2026-05-07 14:11 37.53049 22.15102 13655 ft 337 kts 125°
2026-05-07 14:11 37.51798 22.17606 13233 ft 338 kts 125°
2026-05-07 14:11 37.50527 22.20133 12836 ft 336 kts 125°
2026-05-07 14:11 37.49291 22.22572 12467 ft 334 kts 125°
2026-05-07 14:12 37.48035 22.25038 12086 ft 332 kts 125°
2026-05-07 14:12 37.46802 22.27462 11845 ft 326 kts 125°
2026-05-07 14:12 37.45592 22.29843 11599 ft 320 kts 125°
2026-05-07 14:12 37.44403 22.32182 11351 ft 314 kts 125°
2026-05-07 14:13 37.43228 22.34477 11106 ft 310 kts 127°
2026-05-07 14:13 37.41743 22.36362 10862 ft 301 kts 151°
2026-05-07 14:13 37.39823 22.37247 10624 ft 291 kts 177°
2026-05-07 14:13 37.37854 22.36987 10379 ft 284 kts 202°
2026-05-07 14:14 37.36212 22.35675 10024 ft 280 kts 228°
2026-05-07 14:14 37.35070 22.33712 9643 ft 278 kts 236°
2026-05-07 14:14 37.33969 22.31736 9350 ft 273 kts 235°
2026-05-07 14:14 37.32895 22.29795 9093 ft 268 kts 238°
2026-05-07 14:15 37.32223 22.27620 8835 ft 263 kts 261°
2026-05-07 14:15 37.32296 22.25369 8661 ft 257 kts 283°
2026-05-07 14:15 37.33076 22.23355 8471 ft 253 kts 307°
2026-05-07 14:15 37.34399 22.21922 8256 ft 253 kts 328°
2026-05-07 14:16 37.35897 22.20774 8005 ft 252 kts 322°
2026-05-07 14:16 37.37298 22.19446 7761 ft 252 kts 320°
2026-05-07 14:16 37.38520 22.17909 7517 ft 247 kts 298°
2026-05-07 14:16 37.38990 22.15881 7272 ft 243 kts 268°
2026-05-07 14:17 37.38654 22.13823 7036 ft 241 kts 248°
2026-05-07 14:17 37.38028 22.11861 6798 ft 242 kts 245°
2026-05-07 14:17 37.37261 22.09989 6567 ft 240 kts 230°
2026-05-07 14:17 37.36135 22.08442 6247 ft 241 kts 225°
2026-05-07 14:18 37.34979 22.06908 5871 ft 243 kts 225°
2026-05-07 14:18 37.33815 22.05370 5495 ft 241 kts 224°
2026-05-07 14:18 37.32660 22.03845 5133 ft 234 kts 224°
2026-05-07 14:18 37.31543 22.02368 4760 ft 231 kts 224°
2026-05-07 14:19 37.30446 22.00914 4383 ft 229 kts 224°
2026-05-07 14:19 37.29364 21.99483 4077 ft 222 kts 222°
2026-05-07 14:19 37.28140 21.98410 3822 ft 210 kts 200°
2026-05-07 14:19 37.26751 21.98033 3582 ft 202 kts 178°
2026-05-07 14:20 37.25383 21.98250 3345 ft 195 kts 169°
2026-05-07 14:20 37.24072 21.98545 3126 ft 188 kts 168°
2026-05-07 14:20 37.22800 21.98826 2870 ft 183 kts 169°
2026-05-07 14:20 37.21580 21.99095 2630 ft 171 kts 169°
2026-05-07 14:21 37.20442 21.99346 2395 ft 159 kts 169°
2026-05-07 14:21 37.19422 21.99571 2323 ft 142 kts 169°
2026-05-07 14:21 37.18471 21.99779 2322 ft 137 kts 169°
2026-05-07 14:21 37.17530 21.99987 2187 ft 138 kts 169°
2026-05-07 14:22 37.16583 22.00194 1958 ft 135 kts 170°
2026-05-07 14:22 37.15670 22.00396 1740 ft 136 kts 171°
2026-05-07 14:22 37.14743 22.00599 1532 ft 135 kts 171°
2026-05-07 14:22 37.13822 22.00802 1321 ft 134 kts 169°
2026-05-07 14:23 37.12908 22.01008 1110 ft 133 kts 168°
2026-05-07 14:23 37.12299 22.01160 1006 ft 131 kts 167°
2026-05-07 14:23 37.11399 22.01399 811 ft 132 kts 168°
2026-05-07 14:23 37.10499 22.01653 604 ft 133 kts 167°
2026-05-07 14:24 37.09607 22.01880 379 ft 130 kts 169°
2026-05-07 14:24 37.08722 22.02099 210 ft 131 kts 170°
2026-05-07 14:24 37.07830 22.02311 47 ft 128 kts 168°
2026-05-07 14:24 37.07062 22.02490 31 ft 90 kts 168°
2026-05-07 14:25 37.06606 22.02593 31 ft 50 kts 169°
2026-05-07 14:25 37.06286 22.02669 28 ft 43 kts 168°
2026-05-07 14:25 37.06097 22.02720 28 ft 22 kts 164°
2026-05-07 14:25 37.06075 22.02805 31 ft 10 kts 103°
2026-05-07 14:26 37.05984 22.02863 32 ft 19 kts 168°
2026-05-07 14:26 37.05845 22.02897 31 ft 22 kts 169°
2026-05-07 14:26 37.05689 22.02934 30 ft 23 kts 169°
2026-05-07 14:26 37.05548 22.03014 28 ft 22 kts 116°
2026-05-07 14:27 37.05511 22.03175 29 ft 14 kts 105°
2026-05-07 14:27 37.05470 22.03282 29 ft 11 kts 120°
2026-05-07 14:27 37.05442 22.03290 29 ft 2 kts 229°
2026-05-07 14:27 37.05443 22.03276 29 ft 2 kts 281°
2026-05-07 14:28 37.05449 22.03271 29 ft 0 kts 319°